"2016-02-01 00:00:00",1334811,8.44,161.2,6.447,1.259,2.799,98.68016,-4.063,-2.695,64.05,0,109.4,13.45,-3.32,123.2
"2016-02-01 00:00:30",1334812,7.219,152.7,6.174,1.191,3.349,98.67308,-4.081,-2.731,63.89,0,109.5,13.45,-3.34,114.7
"2016-02-01 00:01:00",1334813,6.571,148.2,6.683,1.217,2.843,98.67392,-4.078,-2.742,63.4,0,109.5,13.44,-3.34,110.2
"2016-02-01 00:01:30",1334814,7.097,140.9,7.79,1.236,2.996,98.66541,-4.1,-2.76,63.2,0,109.5,13.43,-3.36,102.9
"2016-02-01 00:02:00",1334815,8.09,163.4,7.38,1.217,2.842,98.65295,-4.132,-2.745,63.27,0,109.5,13.44,-3.39,125.4
"2016-02-01 00:02:30",1334816,6.862,161.4,9.33,1.413,2.907,98.64162,-4.161,-2.78,63.68,0,109.5,13.43,-3.42,123.4
"2016-02-01 00:03:00",1334817,6.615,152.2,11.11,1.404,2.725,98.63991,-4.165,-2.778,63.77,0,109.4,13.43,-3.43,114.2
"2016-02-01 00:03:30",1334818,7.06,165.3,6.165,1.22,2.813,98.63991,-4.165,-2.807,64.15,0,109.4,13.43,-3.43,127.3
"2016-02-01 00:04:00",1334819,7.614,170.7,7.713,1.19,2.87,98.63595,-4.175,-2.817,64.44,0,109.4,13.43,-3.44,132.7
"2016-02-01 00:04:30",1334820,8.31,177.3,8.18,1.296,2.692,98.61724,-4.223,-2.851,64.8,0,109.5,13.44,-3.49,139.3
"2016-02-01 00:05:00",1334821,8.04,173.3,8.3,1.23,2.653,98.60762,-4.247,-2.821,65.6,0,109.5,13.43,-3.51,135.3
"2016-02-01 00:05:30",1334822,8.02,171.2,7.114,1.217,2.95,98.60592,-4.252,-2.863,65.92,0,109.4,13.43,-3.51,133.2
"2016-02-01 00:06:00",1334823,7.888,164.2,9.33,1.308,2.203,98.59798,-4.272,-2.901,66.06,0,109.4,13.44,-3.53,126.2
"2016-02-01 00:06:30",1334824,8.34,174.3,6.886,1.167,2.463,98.58437,-4.307,-2.898,66.72,0,109.5,13.44,-3.57,136.3
"2016-02-01 00:07:00",1334825,8.21,173.7,7.222,1.227,2.469,98.57248,-4.337,-2.921,67.5,0,109.5,13.45,-3.60,135.7
"2016-02-01 00:07:30",1334826,7.174,166.6,7.872,1.281,2.688,98.56142,-4.365,-2.957,68.27,0,109.5,13.45,-3.63,128.6
"2016-02-01 00:08:00",1334827,7.525,168.4,7.651,1.253,2.65,98.54301,-4.412,-2.96,68.65,0,109.5,13.45,-3.68,130.4
"2016-02-01 00:08:30",1334828,8.15,168.9,6.842,1.327,2.462,98.53791,-4.425,-2.996,69.09,0,109.4,13.45,-3.69,130.9
"2016-02-01 00:09:00",1334829,7.682,170,7.464,1.212,2.493,98.52374,-4.461,-3.027,69.77,0,109.5,13.45,-3.72,132.0
"2016-02-01 00:09:30",1334830,8,169.9,6.49,1.199,2.453,98.50788,-4.501,-3.049,70.22,0,109.5,13.45,-3.77,131.9
"2016-02-01 00:10:00",1334831,7.922,172,6.404,1.299,2.661,98.49541,-4.533,-3.068,70.36,0,109.4,13.45,-3.80,134.0
"2016-02-01 00:10:30",1334832,7.507,172,6.279,1.255,2.828,98.47359,-4.589,-3.127,70.38,0,109.4,13.45,-3.85,134.0
"2016-02-01 00:11:00",1334833,7.846,174.1,6.434,1.102,2.483,98.46849,-4.602,-3.128,70.49,0,109.4,13.45,-3.87,136.1
"2016-02-01 00:11:30",1334834,7.357,166.2,6.433,1.202,2.195,98.45148,-4.645,-3.185,70.61,0,109.4,13.45,-3.91,128.2
"2016-02-01 00:12:00",1334835,7.517,166.5,6.917,1.223,2.318,98.43703,-4.682,-3.204,70.65,0,109.4,13.45,-3.95,128.5
"2016-02-01 00:12:30",1334836,7.535,168,6.73,1.292,2.485,98.43446,-4.688,-3.237,70.87,0,109.4,13.45,-3.95,130.0
"2016-02-01 00:13:00",1334837,7.879,169.1,6.633,1.223,2.119,98.41746,-4.732,-3.283,71.22,0,109.4,13.45,-4.00,131.1
"2016-02-01 00:13:30",1334838,8.11,168.7,6.685,1.142,2.45,98.40553,-4.762,-3.292,71.62,0,109.4,13.45,-4.03,130.7
"2016-02-01 00:14:00",1334839,7.596,171.1,5.757,1.19,2.474,98.40151,-4.772,-3.307,71.93,0,109.4,13.45,-4.04,133.1
"2016-02-01 00:14:30",1334840,7.938,168.5,6.61,1.17,2.104,98.39095,-4.799,-3.353,72.21,0,109.4,13.45,-4.06,130.5
"2016-02-01 00:15:00",1334841,8,166.3,7.011,1.214,2.586,98.38128,-4.824,-3.383,72.54,0,109.4,13.45,-4.09,128.3
"2016-02-01 00:15:30",1334842,8.02,166.9,6.063,1.135,2.199,98.38013,-4.827,-3.412,72.73,0,109.4,13.45,-4.09,128.9
"2016-02-01 00:16:00",1334843,8.1,163.3,6.715,1.153,2.284,98.36308,-4.87,-3.453,72.94,0,109.4,13.45,-4.14,125.3
"2016-02-01 00:16:30",1334844,8.11,164.1,6.324,1.17,2.578,98.35397,-4.893,-3.469,73.16,0,109.4,13.45,-4.16,126.1
"2016-02-01 00:17:00",1334845,7.577,167.4,6.569,1.266,2.362,98.35758,-4.884,-3.439,73.42,0,109.4,13.45,-4.15,129.4
"2016-02-01 00:17:30",1334846,7.787,169.5,6.002,1.195,2.537,98.35054,-4.902,-3.497,73.67,0,109.4,13.45,-4.17,131.5
"2016-02-01 00:18:00",1334847,7.854,169.8,6.528,1.252,2.432,98.33691,-4.937,-3.533,73.97,0,109.4,13.45,-4.20,131.8
"2016-02-01 00:18:30",1334848,8.03,167.4,6.322,1.183,2.068,98.32697,-4.962,-3.548,74.19,0,109.4,13.45,-4.23,129.4
"2016-02-01 00:19:00",1334849,7.64,171.2,6.32,1.214,2.332,98.32358,-4.971,-3.583,74.43,0,109.4,13.45,-4.24,133.2
"2016-02-01 00:19:30",1334850,7.664,167.4,6.435,1.17,2.385,98.31931,-4.981,-3.598,74.69,0,109.4,13.45,-4.25,129.4
"2016-02-01 00:20:00",1334851,7.706,167.3,6.217,1.194,2.518,98.30598,-5.015,-3.616,75,0,109.4,13.45,-4.28,129.3
"2016-02-01 00:20:30",1334852,8.46,167,6.564,1.135,2.215,98.29549,-5.042,-3.631,75.23,0,109.4,13.45,-4.31,129.0
"2016-02-01 00:21:00",1334853,8.46,164.5,6.335,1.126,2.199,98.29124,-5.053,-3.66,75.41,0,109.4,13.45,-4.32,126.5
"2016-02-01 00:21:30",1334854,8.11,163.6,6.52,1.227,2.249,98.29151,-5.052,-3.676,75.56,0,109.4,13.45,-4.32,125.6
"2016-02-01 00:22:00",1334855,7.943,164.4,6.477,1.243,2.564,98.29124,-5.053,-3.689,75.68,0,109.4,13.45,-4.32,126.4
"2016-02-01 00:22:30",1334856,8.08,163.4,6.392,1.235,2.683,98.27904,-5.084,-3.705,75.74,0,109.4,13.45,-4.35,125.4
"2016-02-01 00:23:00",1334857,8.17,165.3,6.381,1.123,2.372,98.27506,-5.094,-3.711,75.89,0,109.4,13.45,-4.36,127.3
"2016-02-01 00:23:30",1334858,8.07,167.1,6.461,1.196,2.234,98.26967,-5.108,-3.732,76.09,0,109.4,13.45,-4.37,129.1
"2016-02-01 00:24:00",1334859,8.11,167,6.046,1.181,2.32,98.26257,-5.126,-3.762,76.38,0,109.4,13.45,-4.39,129.0
"2016-02-01 00:24:30",1334860,7.905,166.3,6.37,1.178,2.539,98.2589,-5.135,-3.78,76.63,0,109.4,13.45,-4.40,128.3
"2016-02-01 00:25:00",1334861,7.744,166,6.406,1.177,2.238,98.26112,-5.13,-3.767,76.86,0,109.4,13.46,-4.40,128.0
"2016-02-01 00:25:30",1334862,7.565,164.7,6.801,1.181,2.372,98.25912,-5.135,-3.789,77.03,0,109.4,13.46,-4.40,126.7
"2016-02-01 00:26:00",1334863,7.547,166.5,6.433,1.203,2.304,98.24718,-5.165,-3.801,77.11,0,109.4,13.46,-4.43,128.5
"2016-02-01 00:26:30",1334864,7.637,166.4,5.82,1.18,2.174,98.24038,-5.182,-3.823,77.17,0,109.4,13.46,-4.45,128.4
"2016-02-01 00:27:00",1334865,7.342,159.8,6.766,1.218,2.117,98.23328,-5.2,-3.817,77.24,0,109.4,13.46,-4.47,121.8
"2016-02-01 00:27:30",1334866,7.176,154.5,6.47,1.236,2.24,98.23045,-5.208,-3.852,77.3,0,109.4,13.46,-4.47,116.5
"2016-02-01 00:28:00",1334867,7.468,154,6.253,1.15,2.17,98.23129,-5.206,-3.853,77.3,0,109.4,13.46,-4.47,116.0
"2016-02-01 00:28:30",1334868,7.274,156.5,6.369,1.219,2.348,98.23129,-5.206,-3.883,77.3,0,109.4,13.46,-4.47,118.5
"2016-02-01 00:29:00",1334869,7.123,157.6,6.184,1.208,2.348,98.23129,-5.206,-3.852,77.36,0,109.4,13.46,-4.47,119.6
"2016-02-01 00:29:30",1334870,7.186,156.2,6.021,1.13,2.324,98.23101,-5.206,-3.895,77.39,0,109.4,13.46,-4.47,118.2
"2016-02-01 00:30:00",1334871,6.725,153.5,6.776,1.191,1.875,98.22874,-5.212,-3.926,77.46,0,109.4,13.46,-4.48,115.5
"2016-02-01 00:30:30",1334872,6.605,154.3,6.429,1.128,2.02,98.2208,-5.232,-3.91,77.59,0,109.4,13.46,-4.50,116.3
"2016-02-01 00:31:00",1334873,7.014,151.5,6.909,1.22,2.096,98.21485,-5.247,-3.916,77.65,0,109.4,13.46,-4.51,113.5
"2016-02-01 00:31:30",1334874,7.446,156.7,7.144,1.219,2.144,98.21457,-5.248,-3.928,77.67,0,109.4,13.46,-4.51,118.7
"2016-02-01 00:32:00",1334875,6.775,158,6.426,1.234,2.222,98.21371,-5.25,-3.917,77.82,0,109.4,13.46,-4.52,120.0
"2016-02-01 00:32:30",1334876,7.363,153.7,6.877,1.202,2.097,98.21258,-5.253,-3.913,77.95,0,109.4,13.46,-4.52,115.7
"2016-02-01 00:33:00",1334877,7.484,152.1,6.448,1.125,2.138,98.20549,-5.271,-3.944,78.1,0,109.4,13.46,-4.54,114.1
"2016-02-01 00:33:30",1334878,7.389,149.5,6.352,1.178,2.127,98.20039,-5.284,-3.95,78.25,0,109.4,13.46,-4.55,111.5
"2016-02-01 00:34:00",1334879,7.354,151.3,6.818,1.272,2.094,98.19756,-5.291,-3.95,78.36,0,109.4,13.46,-4.56,113.3
"2016-02-01 00:34:30",1334880,7.282,154.3,7.431,1.195,2.475,98.19727,-5.292,-3.95,78.45,0,109.4,13.46,-4.56,116.3
"2016-02-01 00:35:00",1334881,7.535,153,6.202,1.168,2.154,98.19727,-5.292,-3.942,78.6,0,109.4,13.46,-4.56,115.0
"2016-02-01 00:35:30",1334882,7.492,156.6,6.07,1.174,1.835,98.19727,-5.292,-3.959,78.69,0,109.4,13.46,-4.56,118.6
"2016-02-01 00:36:00",1334883,7.4,156.9,6.956,1.191,1.998,98.19727,-5.292,-3.965,78.8,0,109.4,13.46,-4.56,118.9
"2016-02-01 00:36:30",1334884,7.089,160.7,6.156,1.224,2.16,98.197,-5.293,-3.947,78.94,0,109.4,13.46,-4.56,122.7
"2016-02-01 00:37:00",1334885,6.885,163.2,6.891,1.317,1.825,98.19189,-5.306,-3.987,79.09,0,109.4,13.46,-4.57,125.2
"2016-02-01 00:37:30",1334886,7.218,162.8,6.016,1.133,2.219,98.1797,-5.337,-3.964,79.28,0,109.4,13.46,-4.60,124.8
"2016-02-01 00:38:00",1334887,7.155,164.2,6.328,1.213,2.237,98.17659,-5.345,-3.97,79.44,0,109.4,13.46,-4.61,126.2
"2016-02-01 00:38:30",1334888,6.995,168.7,7.084,1.195,1.67,98.1678,-5.367,-3.981,79.58,0,109.4,13.46,-4.63,130.7
"2016-02-01 00:39:00",1334889,6.913,171.2,6.385,1.193,2.018,98.16355,-5.378,-4.004,79.79,0,109.4,13.46,-4.64,133.2
"2016-02-01 00:39:30",1334890,6.882,170.9,6.618,1.126,1.772,98.16326,-5.379,-4.001,80,0,109.4,13.46,-4.65,132.9
"2016-02-01 00:40:00",1334891,6.699,168.9,6.592,1.163,1.632,98.16326,-5.379,-4.017,80.2,0,109.4,13.46,-4.65,130.9
"2016-02-01 00:40:30",1334892,6.631,163.5,6.688,1.187,1.829,98.15362,-5.403,-4.035,80.4,0,109.4,13.47,-4.67,125.5
"2016-02-01 00:41:00",1334893,6.265,169.3,6.524,1.237,1.633,98.13435,-5.452,-4.014,80.6,0,109.4,13.47,-4.72,131.3
"2016-02-01 00:41:30",1334894,6.531,168.1,6.888,1.21,1.7,98.12925,-5.465,-4.04,80.8,0,109.4,13.47,-4.73,130.1
"2016-02-01 00:42:00",1334895,6.627,166.4,6.231,1.211,1.574,98.12925,-5.465,-4.048,80.9,0,109.4,13.47,-4.73,128.4
"2016-02-01 00:42:30",1334896,6.418,169.4,6.51,1.17,1.39,98.12925,-5.465,-4.055,81.1,0,109.4,13.47,-4.73,131.4
"2016-02-01 00:43:00",1334897,6.307,171.9,6.109,1.176,1.553,98.1298,-5.464,-4.084,81.3,0,109.4,13.47,-4.73,133.9
"2016-02-01 00:43:30",1334898,6.252,171.7,6.23,1.168,1.675,98.12527,-5.475,-4.095,81.4,0,109.4,13.47,-4.74,133.7
"2016-02-01 00:44:00",1334899,6.122,172.9,6.119,1.215,1.735,98.11366,-5.505,-4.092,81.6,0,109.4,13.47,-4.77,134.9
"2016-02-01 00:44:30",1334900,6.265,175.7,6.576,1.123,1.533,98.10487,-5.527,-4.109,81.7,0,109.4,13.47,-4.79,137.7
"2016-02-01 00:45:00",1334901,6.189,178.5,6.201,1.14,1.41,98.09945,-5.541,-4.141,81.8,0,109.4,13.47,-4.81,140.5
"2016-02-01 00:45:30",1334902,5.838,178.4,6.308,1.227,1.383,98.09885,-5.543,-4.166,82,0,109.4,13.47,-4.81,140.4
"2016-02-01 00:46:00",1334903,5.74,178.3,6.471,1.204,1.685,98.10135,-5.536,-4.135,82.1,0,109.4,13.47,-4.80,140.3
"2016-02-01 00:46:30",1334904,5.674,176.8,6.373,1.23,1.715,98.10413,-5.529,-4.159,82.3,0,109.4,13.47,-4.80,138.8
"2016-02-01 00:47:00",1334905,6.206,174.9,6.32,1.149,1.326,98.10497,-5.527,-4.144,82.5,0,109.4,13.47,-4.79,136.9
"2016-02-01 00:47:30",1334906,6.543,173.3,6.017,1.18,1.009,98.10301,-5.532,-4.189,82.6,0,109.4,13.48,-4.80,135.3
"2016-02-01 00:48:00",1334907,6.375,172.4,6.018,1.169,1.177,98.09956,-5.541,-4.181,82.8,0,109.4,13.48,-4.81,134.4
"2016-02-01 00:48:30",1334908,6.313,171.8,6.2,1.18,1.392,98.09326,-5.557,-4.215,83,0,109.3,13.48,-4.82,133.8
"2016-02-01 00:49:00",1334909,6.163,171.4,6.339,1.161,1.19,98.08849,-5.569,-4.21,83.1,0,109.3,13.47,-4.84,133.4
"2016-02-01 00:49:30",1334910,6.197,171,6.202,1.166,1.348,98.08504,-5.578,-4.215,83.3,0,109.4,13.47,-4.85,133.0
"2016-02-01 00:50:00",1334911,6.204,170.7,5.972,1.179,1.213,98.07993,-5.591,-4.208,83.4,0,109.3,13.48,-4.86,132.7
"2016-02-01 00:50:30",1334912,6.122,165.9,6.255,1.177,1.15,98.07874,-5.594,-4.247,83.5,0,109.4,13.48,-4.86,127.9
"2016-02-01 00:51:00",1334913,5.93,165.2,6.236,1.207,1.057,98.07929,-5.592,-4.231,83.6,0,109.4,13.48,-4.86,127.2
"2016-02-01 00:51:30",1334914,5.804,164.3,6.15,1.245,1.109,98.07818,-5.595,-4.261,83.7,0,109.3,13.47,-4.86,126.3
"2016-02-01 00:52:00",1334915,6.217,166.6,5.984,1.122,1.155,98.07874,-5.594,-4.257,83.8,0,109.3,13.47,-4.86,128.6
"2016-02-01 00:52:30",1334916,6.078,168,6.115,1.204,1.469,98.07873,-5.594,-4.294,83.9,0,109.4,13.47,-4.86,130.0
"2016-02-01 00:53:00",1334917,6.338,168.4,6.232,1.143,1.373,98.0708,-5.614,-4.249,84,0,109.3,13.47,-4.88,130.4
"2016-02-01 00:53:30",1334918,6.689,164.9,5.976,1.14,1.342,98.06172,-5.637,-4.276,84.1,0,109.3,13.47,-4.91,126.9
"2016-02-01 00:54:00",1334919,6.49,159.6,6.269,1.217,1.36,98.06088,-5.639,-4.284,84.2,0,109.3,13.47,-4.91,121.6
"2016-02-01 00:54:30",1334920,6.513,158.7,5.774,1.215,1.221,98.05889,-5.644,-4.275,84.2,0,109.3,13.47,-4.91,120.7
"2016-02-01 00:55:00",1334921,6.596,159.4,5.937,1.17,1.191,98.05891,-5.644,-4.287,84.3,0,109.3,13.47,-4.91,121.4
"2016-02-01 00:55:30",1334922,6.876,160.1,6.204,1.184,1.341,98.0555,-5.653,-4.304,84.3,0,109.3,13.47,-4.92,122.1
"2016-02-01 00:56:00",1334923,6.898,160.3,6.185,1.182,1.53,98.05406,-5.657,-4.3,84.4,0,109.3,13.47,-4.92,122.3
"2016-02-01 00:56:30",1334924,6.712,162,6.019,1.257,1.589,98.05349,-5.658,-4.308,84.5,0,109.3,13.47,-4.93,124.0
"2016-02-01 00:57:00",1334925,7.172,165.4,6.15,1.175,1.869,98.05039,-5.666,-4.31,84.5,0,109.3,13.47,-4.93,127.4
"2016-02-01 00:57:30",1334926,7.169,165.4,5.922,1.171,1.891,98.04613,-5.677,-4.304,84.6,0,109.3,13.48,-4.94,127.4
"2016-02-01 00:58:00",1334927,6.937,164.8,5.932,1.197,1.521,98.045,-5.68,-4.303,84.7,0,109.3,13.48,-4.95,126.8
"2016-02-01 00:58:30",1334928,6.928,164.6,6.286,1.173,1.543,98.04638,-5.676,-4.317,84.7,0,109.3,13.48,-4.94,126.6
"2016-02-01 00:59:00",1334929,6.947,165.7,6.443,1.133,1.464,98.04861,-5.671,-4.342,84.8,0,109.3,13.48,-4.94,127.7
"2016-02-01 00:59:30",1334930,6.733,166.6,6.447,1.216,1.534,98.05,-5.667,-4.348,84.8,0,109.4,13.48,-4.93,128.6
"2016-02-01 01:00:00",1334931,6.647,168.1,5.861,1.21,1.705,98.05055,-5.666,-4.321,85,0,109.3,13.48,-4.93,130.1
"2016-02-01 01:00:30",1334932,6.83,167.5,6.122,1.131,1.503,98.05193,-5.662,-4.326,85,0,109.3,13.48,-4.93,129.5
"2016-02-01 01:01:00",1334933,6.588,167.5,6.069,1.212,1.455,98.04968,-5.668,-4.364,85.1,0,109.3,13.48,-4.94,129.5
"2016-02-01 01:01:30",1334934,6.803,166.6,6.407,1.13,1.551,98.04032,-5.692,-4.356,85.2,0,109.3,13.48,-4.96,128.6
"2016-02-01 01:02:00",1334935,6.873,167.2,6.088,1.176,1.456,98.03722,-5.7,-4.361,85.2,0,109.3,13.48,-4.97,129.2
"2016-02-01 01:02:30",1334936,6.896,168.3,5.735,1.17,1.576,98.0355,-5.704,-4.367,85.3,0,109.3,13.48,-4.97,130.3
"2016-02-01 01:03:00",1334937,7.077,165.5,6.094,1.165,1.783,98.03493,-5.705,-4.347,85.4,0,109.3,13.48,-4.97,127.5
"2016-02-01 01:03:30",1334938,7.097,162.8,6.333,1.18,1.498,98.03519,-5.705,-4.351,85.5,0,109.3,13.48,-4.97,124.8
"2016-02-01 01:04:00",1334939,7.176,161,6.424,1.134,1.507,98.03349,-5.709,-4.404,85.6,0,109.3,13.48,-4.98,123.0
"2016-02-01 01:04:30",1334940,7.108,160.4,6.258,1.175,1.611,98.0349,-5.705,-4.37,85.7,0,109.3,13.48,-4.97,122.4
"2016-02-01 01:05:00",1334941,6.767,161.7,6.39,1.242,1.407,98.03406,-5.708,-4.353,85.8,0,109.3,13.48,-4.98,123.7
"2016-02-01 01:05:30",1334942,6.98,162.3,5.835,1.217,1.724,98.03208,-5.713,-4.376,85.8,0,109.3,13.48,-4.98,124.3
"2016-02-01 01:06:00",1334943,7.072,163.5,6.573,1.124,2.025,98.03516,-5.705,-4.377,85.9,0,109.3,13.48,-4.97,125.5
"2016-02-01 01:06:30",1334944,6.877,163.1,6.042,1.24,1.729,98.03377,-5.708,-4.372,86,0,109.3,13.48,-4.98,125.1
"2016-02-01 01:07:00",1334945,6.891,164.9,6.445,1.123,1.82,98.0346,-5.706,-4.389,86.1,0,109.3,13.48,-4.97,126.9
"2016-02-01 01:07:30",1334946,6.801,166.7,5.801,1.154,1.821,98.03377,-5.708,-4.367,86.2,0,109.3,13.48,-4.98,128.7
"2016-02-01 01:08:00",1334947,6.562,164.7,6.349,1.241,1.474,98.03349,-5.709,-4.388,86.2,0,109.3,13.48,-4.98,126.7
"2016-02-01 01:08:30",1334948,6.904,164.1,6.278,1.118,1.786,98.03406,-5.708,-4.389,86.3,0,109.3,13.48,-4.98,126.1
"2016-02-01 01:09:00",1334949,6.777,162.4,6.986,1.183,1.987,98.03377,-5.708,-4.378,86.4,0,109.3,13.47,-4.98,124.4
"2016-02-01 01:09:30",1334950,6.824,161.8,6.322,1.173,1.377,98.03434,-5.707,-4.388,86.4,0,109.3,13.47,-4.97,123.8
"2016-02-01 01:10:00",1334951,6.567,158.6,5.839,1.198,1.635,98.03293,-5.711,-4.376,86.5,0,109.3,13.47,-4.98,120.6
"2016-02-01 01:10:30",1334952,6.539,158.9,6.076,1.208,1.765,98.03405,-5.708,-4.373,86.5,0,109.3,13.48,-4.98,120.9
"2016-02-01 01:11:00",1334953,6.775,160,6.326,1.121,1.55,98.03378,-5.708,-4.403,86.5,0,109.3,13.48,-4.98,122.0
"2016-02-01 01:11:30",1334954,6.694,160,6.473,1.186,1.587,98.03264,-5.711,-4.399,86.6,0,109.3,13.48,-4.98,122.0
"2016-02-01 01:12:00",1334955,6.8,159.2,6.169,1.227,1.96,98.03433,-5.707,-4.381,86.7,0,109.3,13.47,-4.98,121.2
"2016-02-01 01:12:30",1334956,6.836,159.8,6.723,1.138,1.821,98.03293,-5.711,-4.381,86.7,0,109.3,13.48,-4.98,121.8
"2016-02-01 01:13:00",1334957,6.871,160.4,6.074,1.186,1.508,98.03349,-5.709,-4.368,86.7,0,109.3,13.48,-4.98,122.4
"2016-02-01 01:13:30",1334958,6.841,157.4,6.829,1.178,1.348,98.036,-5.703,-4.401,86.7,0,109.3,13.48,-4.97,119.4
"2016-02-01 01:14:00",1334959,7.044,157.3,6.171,1.185,1.592,98.03515,-5.705,-4.405,86.7,0,109.3,13.48,-4.97,119.3
"2016-02-01 01:14:30",1334960,6.986,158.2,6.053,1.183,1.84,98.03146,-5.714,-4.384,86.8,0,109.3,13.48,-4.98,120.2
"2016-02-01 01:15:00",1334961,7.045,158.4,6.049,1.277,1.836,98.02834,-5.722,-4.403,86.7,0,109.3,13.48,-4.99,120.4
"2016-02-01 01:15:30",1334962,7.206,157.9,5.946,1.113,1.811,98.02156,-5.739,-4.382,86.7,0,109.3,13.48,-5.01,119.9
"2016-02-01 01:16:00",1334963,7.236,158.7,6.011,1.142,1.627,98.02099,-5.741,-4.42,86.6,0,109.3,13.48,-5.01,120.7
"2016-02-01 01:16:30",1334964,6.917,158,6.117,1.218,1.43,98.01987,-5.744,-4.436,86.5,0,109.3,13.48,-5.01,120.0
"2016-02-01 01:17:00",1334965,6.996,154.2,6.184,1.16,1.762,98.02181,-5.739,-4.424,86.4,0,109.3,13.48,-5.01,116.2
"2016-02-01 01:17:30",1334966,6.847,155.5,6.536,1.273,1.578,98.01754,-5.75,-4.424,86.3,0,109.3,13.48,-5.02,117.5
"2016-02-01 01:18:00",1334967,7.123,149.2,6.488,1.125,1.741,98.00872,-5.772,-4.46,86.3,0,109.3,13.48,-5.04,111.2
"2016-02-01 01:18:30",1334968,7.059,149.3,6.057,1.191,1.626,98.00842,-5.773,-4.443,86.2,0,109.3,13.48,-5.04,111.3
"2016-02-01 01:19:00",1334969,7.008,150.1,6.405,1.155,1.672,98.00559,-5.78,-4.457,86.1,0,109.3,13.48,-5.05,112.1
"2016-02-01 01:19:30",1334970,6.823,150.4,6.497,1.21,1.892,98.00306,-5.787,-4.472,86,0,109.3,13.48,-5.05,112.4
"2016-02-01 01:20:00",1334971,6.793,147.8,6.189,1.201,1.73,98.00133,-5.791,-4.458,85.9,0,109.3,13.48,-5.06,109.8
"2016-02-01 01:20:30",1334972,6.56,154.9,6.71,1.185,1.536,98.00019,-5.794,-4.475,85.8,0,109.3,13.48,-5.06,116.9
"2016-02-01 01:21:00",1334973,6.44,159.5,6.771,1.147,1.863,97.99736,-5.801,-4.491,85.8,0,109.3,13.48,-5.07,121.5
"2016-02-01 01:21:30",1334974,6.277,157,5.986,1.188,1.546,97.99935,-5.796,-4.48,85.7,0,109.3,13.48,-5.06,119.0
"2016-02-01 01:22:00",1334975,6.226,157.3,6.32,1.258,1.49,97.99876,-5.797,-4.463,85.8,0,109.3,13.48,-5.07,119.3
"2016-02-01 01:22:30",1334976,6.355,159.1,6.282,1.22,1.408,97.99905,-5.797,-4.474,85.8,0,109.3,13.49,-5.07,121.1
"2016-02-01 01:23:00",1334977,6.061,158.2,6.285,1.147,1.425,97.99847,-5.798,-4.49,85.8,0,109.3,13.49,-5.07,120.2
"2016-02-01 01:23:30",1334978,6.219,161.7,7.403,1.194,1.22,97.99705,-5.802,-4.487,85.8,0,109.3,13.48,-5.07,123.7
"2016-02-01 01:24:00",1334979,6.35,167.5,5.967,1.214,1.694,97.99705,-5.802,-4.449,85.9,0,109.3,13.48,-5.07,129.5
"2016-02-01 01:24:30",1334980,6.815,168.5,6.122,1.141,1.423,97.99676,-5.803,-4.466,85.9,0,109.3,13.48,-5.07,130.5
"2016-02-01 01:25:00",1334981,6.705,167.3,6.129,1.268,1.212,97.99676,-5.803,-4.475,85.9,0,109.3,13.48,-5.07,129.3
"2016-02-01 01:25:30",1334982,6.919,167.4,6.104,1.145,1.362,97.99592,-5.805,-4.459,86,0,109.3,13.48,-5.07,129.4
"2016-02-01 01:26:00",1334983,7.022,165.8,6.34,1.123,1.298,97.99506,-5.807,-4.477,86.1,0,109.3,13.48,-5.08,127.8
"2016-02-01 01:26:30",1334984,6.952,167.6,5.975,1.217,1.62,97.99535,-5.806,-4.456,86.2,0,109.3,13.48,-5.07,129.6
"2016-02-01 01:27:00",1334985,7.15,167.4,6.213,1.195,1.711,97.99506,-5.807,-4.443,86.3,0,109.3,13.48,-5.08,129.4
"2016-02-01 01:27:30",1334986,7.436,166.9,6.173,1.18,1.364,97.99422,-5.809,-4.433,86.4,0,109.3,13.48,-5.08,128.9
"2016-02-01 01:28:00",1334987,7.478,166.2,6.417,1.142,1.524,97.99364,-5.81,-4.492,86.4,0,109.3,13.48,-5.08,128.2
"2016-02-01 01:28:30",1334988,7.565,166.8,6.346,1.139,1.586,97.99252,-5.813,-4.472,86.5,0,109.3,13.48,-5.08,128.8
"2016-02-01 01:29:00",1334989,7.162,166.1,6.359,1.249,1.621,97.99252,-5.813,-4.459,86.6,0,109.3,13.48,-5.08,128.1
"2016-02-01 01:29:30",1334990,7.198,167.6,5.676,1.226,1.772,97.99252,-5.813,-4.467,86.7,0,109.3,13.48,-5.08,129.6
"2016-02-01 01:30:00",1334991,7.255,166.4,6.003,1.13,1.953,97.99252,-5.813,-4.48,86.7,0,109.3,13.48,-5.08,128.4
"2016-02-01 01:30:30",1334992,7.191,166.4,6.082,1.174,1.642,97.99252,-5.813,-4.482,86.8,0,109.3,13.48,-5.08,128.4
"2016-02-01 01:31:00",1334993,7.657,165.8,6.26,1.13,1.621,97.99223,-5.814,-4.497,86.8,0,109.3,13.48,-5.08,127.8
"2016-02-01 01:31:30",1334994,7.54,166.5,6.013,1.209,1.921,97.9911,-5.817,-4.47,86.9,0,109.3,13.48,-5.09,128.5
"2016-02-01 01:32:00",1334995,7.502,165.7,6.139,1.265,1.615,97.98854,-5.823,-4.505,86.9,0,109.3,13.48,-5.09,127.7
"2016-02-01 01:32:30",1334996,7.95,165.7,6.355,1.137,1.779,97.97777,-5.851,-4.504,86.9,0,109.3,13.49,-5.12,127.7
"2016-02-01 01:33:00",1334997,7.971,165.3,6.362,1.124,2.15,97.97664,-5.854,-4.506,87,0,109.3,13.49,-5.12,127.3
"2016-02-01 01:33:30",1334998,8.03,165.7,6.085,1.188,1.816,97.97578,-5.856,-4.495,87,0,109.3,13.49,-5.12,127.7
"2016-02-01 01:34:00",1334999,7.86,165.1,6.101,1.21,2.056,97.97549,-5.857,-4.505,87,0,109.3,13.49,-5.13,127.1
"2016-02-01 01:34:30",1335000,7.864,165.3,5.751,1.2,2.001,97.97549,-5.857,-4.518,87.1,0,109.3,13.49,-5.13,127.3
"2016-02-01 01:35:00",1335001,8.38,163.3,5.879,1.139,1.838,97.97549,-5.857,-4.534,87.1,0,109.3,13.48,-5.13,125.3
"2016-02-01 01:35:30",1335002,8.45,163.1,6.34,1.139,1.856,97.97549,-5.857,-4.541,87.1,0,109.3,13.49,-5.13,125.1
"2016-02-01 01:36:00",1335003,8.37,166.5,6.417,1.296,2.199,97.97549,-5.857,-4.522,87.2,0,109.3,13.49,-5.13,128.5
"2016-02-01 01:36:30",1335004,8.18,164.6,6.354,1.136,2.271,97.97549,-5.857,-4.535,87.2,0,109.3,13.49,-5.13,126.6
"2016-02-01 01:37:00",1335005,7.819,164.2,6.313,1.233,2.071,97.97549,-5.857,-4.526,87.2,0,109.3,13.49,-5.13,126.2
"2016-02-01 01:37:30",1335006,8.41,165.7,6.316,1.175,1.718,97.97549,-5.857,-4.537,87.2,0,109.3,13.49,-5.13,127.7
"2016-02-01 01:38:00",1335007,8.42,167.2,6.328,1.107,2.085,97.97549,-5.857,-4.543,87.3,0,109.3,13.49,-5.13,129.2
"2016-02-01 01:38:30",1335008,8.28,168.4,5.987,1.212,2.201,97.97549,-5.857,-4.549,87.3,0,109.3,13.49,-5.13,130.4
"2016-02-01 01:39:00",1335009,8.17,168,6.12,1.203,2.285,97.97549,-5.857,-4.535,87.4,0,109.4,13.49,-5.13,130.0
"2016-02-01 01:39:30",1335010,8.13,170.6,5.798,1.193,2.079,97.97549,-5.857,-4.52,87.4,0,109.3,13.49,-5.13,132.6
"2016-02-01 01:40:00",1335011,8.36,169.7,6.085,1.132,1.941,97.97521,-5.857,-4.545,87.4,0,109.3,13.49,-5.13,131.7
"2016-02-01 01:40:30",1335012,8.22,167.9,6.452,1.175,1.74,97.97521,-5.857,-4.566,87.4,0,109.3,13.49,-5.13,129.9
"2016-02-01 01:41:00",1335013,7.979,168.5,6.095,1.192,2.405,97.97379,-5.861,-4.525,87.5,0,109.3,13.49,-5.13,130.5
"2016-02-01 01:41:30",1335014,7.935,168.9,6.045,1.23,2.02,97.97095,-5.868,-4.517,87.6,0,109.3,13.48,-5.14,130.9
"2016-02-01 01:42:00",1335015,8.03,169.1,6.175,1.193,2.153,97.96784,-5.876,-4.558,87.6,0,109.3,13.48,-5.14,131.1
"2016-02-01 01:42:30",1335016,7.937,168.2,6.137,1.132,2.148,97.96529,-5.883,-4.563,87.6,0,109.3,13.48,-5.15,130.2
"2016-02-01 01:43:00",1335017,8.05,167.7,6.314,1.192,2.031,97.96415,-5.886,-4.529,87.7,0,109.3,13.48,-5.15,129.7
"2016-02-01 01:43:30",1335018,7.786,168.5,5.946,1.203,2.212,97.96189,-5.891,-4.58,87.7,0,109.3,13.48,-5.16,130.5
"2016-02-01 01:44:00",1335019,7.822,169.2,5.808,1.174,2.073,97.96103,-5.894,-4.556,87.7,0,109.3,13.48,-5.16,131.2
"2016-02-01 01:44:30",1335020,7.56,168.6,6.378,1.216,1.693,97.96072,-5.894,-4.552,87.7,0,109.3,13.48,-5.16,130.6
"2016-02-01 01:45:00",1335021,7.752,171.6,6.233,1.126,2.182,97.95933,-5.898,-4.573,87.8,0,109.3,13.48,-5.17,133.6
"2016-02-01 01:45:30",1335022,7.556,170.8,5.771,1.18,2.076,97.95876,-5.899,-4.555,87.8,0,109.3,13.48,-5.17,132.8